Location: Aranbee
(34.0885°N, 118.2342°W)
Time: 03:32:03
(UTC+00:00)

Courier 1B - Pass Details

Date: 03 December 2020
Orbit: 962 x 1209 km, 28.3° (Epoch: 17 January)

Event Time Altitude Azimuth Distance (km) Brightness Sun altitude
Rises 02:53:23 0° 221° (SW) 3,625 11.2 -26.4°
Reaches altitude 10° 02:56:31 10° 208° (SSW) 2,682 10.2 -27.0°
Enters shadow 03:01:17 24° 160° (SSE) 1,888 8.9 -28.0°
